STARLINK-1479 (45740 NORAD) Tracking and Keplerian Element Data

This shows tracking and keplerian element data for the satellite.

Feedback or suggestion? Click here.




ElementValue
Catalog45740
NameSTARLINK-1479
Epoch Orbit461
Epoch Day186.50001157
Epoch Year2020
RAAN193.4726
Inclination52.9997
Eccentricity0.0001342
Argument of Perigee114.9741
Mean Anonmoly94.9365
Mean Motion15.57619085
Decay Rate-0.01182037
L11 45740U 20038L 20186.50001157 -.01182037 00000-0 -17465-1 0 9997
L22 45740 52.9997 193.4726 0001342 114.9741 94.9365 15.57619085 4616

Live tracking and technical data element details for STARLINK-1479 (NORAD 45740). STARLINK-1479 can be tracked NOW for your location showing map with azimuth and elevation plus other details from your city location.

Track the satellite on the map from your city or location and see movement details for azimuth, elevation, latitude, longitude, range, height, and movement on the map or in text.







IsCatalogInMostPopularTable: catalog: 45740, numindb: 4
Update: records affected: 1



GetName: 45740 STARLINK-1479

Hit Count: updated at: Sun, 05 Jul 2020 17:16:44 GMT